EST,Max TemperatureF,Mean TemperatureF,Min TemperatureF,Max Dew PointF,MeanDew PointF,Min DewpointF,Max Humidity, Mean Humidity, Min Humidity, Max Sea Level PressureIn, Mean Sea Level PressureIn, Min Sea Level PressureIn, Max VisibilityMiles, Mean VisibilityMiles, Min VisibilityMiles, Max Wind SpeedMPH, Mean Wind SpeedMPH, Max Gust SpeedMPH,PrecipitationIn, CloudCover, Events, WindDirDegrees
2013-1-1,34,24,15,23,11,-2,70,52,40,29.91,29.76,29.67,10,10,10,22,12,29,0.00,3,,274
2013-1-2,25,16,4,8,0,-10,63,50,39,30.10,29.96,29.88,10,10,10,22,10,26,0.00,2,,280
2013-1-3,22,12,2,-1,-6,-10,58,47,33,30.12,30.06,29.97,10,10,10,13,8,,0.00,2,,263
2013-1-4,36,22,8,20,14,-1,82,63,50,29.95,29.85,29.77,10,10,10,13,6,20,0.00,6,,233
2013-1-5,36,27,17,21,16,11,77,56,35,30.25,30.07,29.79,10,10,10,20,8,30,0.00,3,,287
2013-1-6,39,29,19,25,21,14,86,74,56,30.20,30.03,29.92,10,8,1,7,2,,0.01,6,Snow,243
2013-1-7,32,26,20,25,21,14,85,77,67,30.39,30.23,29.94,10,10,10,8,4,,0.00,3,,200
2013-1-8,44,34,24,24,22,20,92,66,42,30.35,30.29,30.22,10,10,8,14,7,20,0.00,4,,232
2013-1-9,40,30,21,31,25,19,91,74,60,30.40,30.19,29.95,10,10,7,13,3,20,0.00,5,Rain,231
2013-1-10,44,36,27,26,23,20,77,53,42,30.53,30.29,29.98,10,10,10,25,15,39,0.00,1,,291
2013-1-11,37,30,23,36,27,20,96,79,60,30.51,30.38,30.23,10,9,4,8,2,,0.06,7,Rain,146
2013-1-12,42,40,37,41,39,37,100,99,93,30.22,30.17,30.13,6,2,0,8,4,,0.00,8,Fog,203
2013-1-13,49,44,39,49,43,39,100,100,93,30.15,30.07,29.96,7,2,0,9,4,,0.00,8,Fog,211
2013-1-14,60,50,38,51,43,24,100,84,38,30.23,29.98,29.85,10,7,0,20,8,23,0.00,7,Fog,245
2013-1-15,39,34,29,26,23,20,81,62,49,30.31,30.26,30.22,10,10,10,7,3,,0.00,7,,295
2013-1-16,32,30,28,31,28,20,100,93,63,30.25,29.96,29.81,10,5,0,9,5,,0.40,8,Fog-Rain-Snow,329
2013-1-17,39,32,24,31,22,6,100,75,45,30.10,29.94,29.81,10,9,1,16,7,23,0.00,6,,256
2013-1-18,23,18,12,6,-6,-13,51,36,29,30.43,30.30,30.08,10,10,10,17,11,31,0.00,3,,274
2013-1-19,43,31,19,27,17,4,68,50,40,30.34,30.08,29.86,10,10,10,22,10,33,0.00,7,,199
2013-1-20,50,39,26,30,20,2,72,49,24,29.88,29.68,29.47,10,10,10,30,12,40,0.00,4,,234
2013-1-21,25,22,18,17,4,-6,82,46,29,30.06,29.96,29.80,10,9,4,21,11,36,0.00,5,Snow,265
2013-1-22,26,18,10,16,4,-9,80,55,22,30.05,29.86,29.74,10,9,7,17,10,26,0.00,4,Snow,306
2013-1-23,10,6,1,-2,-12,-18,66,45,28,30.13,30.09,30.04,10,10,10,16,10,23,0.00,1,,292
2013-1-24,14,6,-2,-11,-16,-19,47,35,24,30.17,30.08,30.02,10,10,10,26,14,36,0.00,2,,286
2013-1-25,20,12,5,1,-9,-11,50,37,25,30.26,30.16,30.06,10,10,7,17,12,28,0.00,5,Snow,274
2013-1-26,24,17,10,9,0,-12,80,54,26,30.18,30.06,30.00,10,9,2,21,7,30,0.00,5,Snow,297
2013-1-27,28,20,12,-2,-6,-13,53,35,23,30.45,30.33,30.19,10,10,10,20,11,29,0.00,0,,286
2013-1-28,27,19,11,21,8,-9,93,62,22,30.43,30.24,30.04,10,6,0,7,3,,0.14,7,Fog-Snow,325
2013-1-29,34,28,23,31,24,19,99,85,71,30.19,30.14,30.05,10,8,1,8,5,,0.01,8,Snow,327
2013-1-30,59,45,31,59,44,32,100,99,91,30.14,29.75,29.44,10,3,0,15,4,24,0.13,8,Fog-Rain,166
2013-1-31,62,46,30,59,39,6,100,72,34,29.52,29.20,28.91,10,7,2,30,18,48,0.24,6,Rain,210